Flag for Russia Weather past 2 weeks in Surgut, Russia

Now
63 °F

Partly sunny.


Feels Like: 63 °F
Forecast: 55 / 72 °F
Wind: 3 mph from Southeast

Location: Surgut Airport

Current Time: Aug 23, 2014 at 9:26:15 PM

Latest Report: Aug 23, 2014 at 9:00 PM


Visibility: 4 mi

Pressure: 29.89 "Hg

Humidity: 68%

Dew point: 52 °F

Location of SurgutLocation

Historic Weather in Surgut — Graph

°F

Surgut temperature yesterday

Maximum temperature yesterday: 66 °F (at 6:00 PM)
Minimum temperature yesterday: 54 °F (at 6:00 AM)
Average temperature yesterday: 59 °F

Past Weeks' High & Low Weather Summary

 TemperatureHumidityPressure
High75 °F (Aug 10, 12:00 PM)100% (Aug 9, 4:00 AM)30.21 "Hg (Aug 9, 4:00 AM)
Low46 °F (Aug 11, 5:30 AM)35% (Aug 14, 2:00 PM)29.45 "Hg (Aug 18, 12:00 AM)
Average60 °F77%29.80 "Hg
* Reported Aug 8 8:00 PM — Aug 23 8:30 PM, Surgut, Weather by CustomWeather, © 2014

Note: Actual official high and low records may vary slightly from our data, if they occured in-between our weather recording intervals... More about our weather records

Advertising

Surgut weather history for previous 24 hours

 ConditionsComfort  
Time TempWeatherWind HumidityBarometerVisibility
8:30 PM
Aug 23
64 °FPartly sunny.3 mph68%29.89 "Hg4 mi
8:00 PM66 °FPassing clouds.3 mph64%29.89 "Hg4 mi
7:30 PM68 °FPassing clouds.3 mph60%29.89 "Hg4 mi
7:00 PM70 °FPassing clouds.6 mph53%29.89 "Hg4 mi
6:30 PM70 °FPassing clouds.6 mph57%29.92 "Hg4 mi
6:00 PM70 °FPassing clouds.3 mph53%29.92 "Hg4 mi
5:30 PM72 °FPassing clouds.6 mph53%29.92 "Hg4 mi
5:00 PM72 °FPassing clouds.6 mph53%29.92 "Hg4 mi
4:30 PM72 °FPassing clouds.3 mph50%29.92 "Hg4 mi
4:00 PM72 °FScattered clouds.3 mph53%29.92 "Hg4 mi
3:30 PM72 °FScattered clouds.3 mph47%29.92 "Hg4 mi
3:00 PM72 °FScattered clouds.1 mph50%29.92 "Hg4 mi
2:30 PM72 °FPassing clouds.6 mph47%29.92 "Hg4 mi
2:00 PM72 °FPassing clouds.3 mph47%29.92 "Hg4 mi
1:30 PM72 °FPassing clouds.1 mph47%29.92 "Hg4 mi
1:00 PM70 °FPassing clouds.1 mph50%29.92 "Hg4 mi
12:30 PM70 °FSunny.6 mph50%29.92 "Hg4 mi
12:00 PM70 °FPassing clouds.6 mph50%29.92 "Hg4 mi
11:30 AM70 °FPassing clouds.3 mph53%29.92 "Hg4 mi
11:00 AM68 °FPassing clouds.3 mph53%29.92 "Hg4 mi
10:30 AM66 °FPassing clouds.3 mph60%29.92 "Hg4 mi
10:00 AM66 °FPassing clouds.3 mph60%29.92 "Hg4 mi
9:30 AM64 °FPassing clouds.6 mph68%29.92 "Hg4 mi
9:00 AM63 °FPassing clouds.6 mph68%29.92 "Hg4 mi
8:30 AM61 °FPassing clouds.6 mph77%29.92 "Hg4 mi
8:00 AM61 °FPassing clouds.6 mph77%29.89 "Hg4 mi
7:30 AM59 °FSunny.6 mph82%29.89 "Hg4 mi
7:00 AM59 °FSunny.3 mph88%29.89 "Hg4 mi
6:30 AM57 °FClear.6 mph94%29.86 "Hg4 mi
6:00 AM57 °FClear.8 mph94%29.86 "Hg4 mi
5:30 AM57 °FClear.8 mph94%29.86 "Hg4 mi
5:00 AM57 °FClear.6 mph94%29.86 "Hg4 mi
4:30 AM57 °FClear.6 mph94%29.83 "Hg4 mi
4:00 AM57 °FClear.6 mph100%29.83 "Hg4 mi
3:30 AM57 °FClear.6 mph100%29.83 "Hg4 mi
3:00 AM57 °FClear.6 mph100%29.83 "Hg4 mi
2:30 AM57 °FClear.8 mph100%29.83 "Hg4 mi
2:00 AM57 °FClear.8 mph100%29.80 "Hg4 mi
1:30 AM59 °FClear.8 mph94%29.83 "Hg4 mi
1:00 AM61 °FClear.8 mph88%29.80 "Hg4 mi
12:30 AM61 °FPassing clouds.8 mph88%29.80 "Hg4 mi
12:00 AM61 °FPassing clouds.6 mph88%29.80 "Hg4 mi
11:30 PM
Aug 22
61 °FPassing clouds.6 mph88%29.83 "Hg4 mi
11:00 PM61 °FPassing clouds.3 mph88%29.83 "Hg4 mi
10:30 PM59 °FPassing clouds.3 mph94%29.83 "Hg4 mi
10:00 PM59 °FPassing clouds.3 mph94%29.83 "Hg4 mi
9:30 PM59 °FSunny.No wind94%29.83 "Hg4 mi
9:00 PM61 °FScattered clouds.1 mph88%29.80 "Hg4 mi
Weather by CustomWeather, © 2014

See weather overviewHow to use our weather pages